Regional Weather Roundup
Issued by NWS

Home | Current Version | Previous Version | Graphics & Text | Print | Product List | Glossary On
Versions: 1 2 3 4 5 6 7 8 9 10 11 12 13 14 15 16 17 18 19 20 21 22 23 24 25 26 27 28 29 30 31 32 33 34 35 36 37 38 39 40 41 42 43 44 45 46 47 48 49 50
000
ASUS43 KFSD 201602
RWRSD

WEATHER ROUNDUP FOR SOUTH DAKOTA
NATIONAL WEATHER SERVICE SIOUX FALLS SD
1000 AM CST SAT DEC 20 2014

NOTE: "FAIR" INDICATES FEW OR NO CLOUDS BELOW 12,000 FEET WITH NO
SIGNIFICANT WEATHER AND/OR OBSTRUCTIONS TO VISIBILITY.


SDZ001>005-009-010-012>017-201700-
NORTHWEST AND NORTH CENTRAL SOUTH DAKOTA

CITY           SKY/WX    TMP DP  RH WIND       PRES   REMARKS
BUFFALO          N/A     37  27  67 W6        29.83R
FAITH            N/A     30  25  81 S8        29.89R WCI  22
MOBRIDGE       CLOUDY    24  21  88 S6        29.90R WCI  17
$$

SDZ012>016-024>037-041>051-057-063-072>074-201700-
SOUTHWEST AND SOUTH CENTRAL SOUTH DAKOTA

CITY           SKY/WX    TMP DP  RH WIND       PRES   REMARKS
RAPID CTY ARPT CLOUDY    34  27  75 CALM      29.91S
PIERRE         CLOUDY    23  19  85 S5        29.96R FOG     WCI  17
CUSTER         CLOUDY    34  21  59 CALM      29.91R
ELLSWORTH AFB  CLOUDY    36  25  65 W6        29.90S
PHILIP         PTSUNNY   24  20  84 W5        29.94R WCI  18
PINE RIDGE     CLOUDY    34  26  72 W6        29.94R WCI  29
WINNER         FAIR      30  19  63 CALM      29.96R
$$

SDZ004>011-016>023-039-040-201700-
NORTHEAST SOUTH DAKOTA

CITY           SKY/WX    TMP DP  RH WIND       PRES   REMARKS
ABERDEEN       FOG       26  24  92 S10       30.01F VSB 1/4 WCI  16
WATERTOWN      CLOUDY    28  27  96 S13G18    30.01S FOG     WCI  17
SISSETON         N/A     29  27  92 S13       30.03R WCI  19
$$

SDZ017-020-022-023-036>040-048>070-201700-
SOUTHEAST SOUTH DAKOTA

CITY           SKY/WX    TMP DP  RH WIND       PRES   REMARKS
SIOUX FALLS    CLOUDY    32  29  88 S9        30.07S WCI  24
HURON          FOG       26  25  96 S10       30.03S VSB 1/4 WCI  16
MITCHELL       FOG       27  27 100 S12       30.05S VSB 1/4 WCI  17
YANKTON        CLOUDY    32  28  86 S9        30.08S WCI  24
$$

ABBREVIATIONS USED IN REMARKS
   TC - TEMPERATURE IN CELSIUS
  WCI - WIND CHILL INDEX
   HX - HEAT INDEX
  VSB - VISIBILITY



USA.gov is the U.S. government's official web portal to all federal, state and local government web resources and services.